Time,TemperatureF,DewpointF,PressureIn,WindDirection,WindDirectionDegrees,WindSpeedMPH,WindSpeedGustMPH,Humidity,HourlyPrecipIn,Conditions,Clouds,dailyrainin,SolarRadiationWatts/m^2,SoftwareType,DateUTC
2013-11-03 00:06:00,54.4,51.2,30.00,SSW,201,2.0,3.0,89,0.00,,,0.00,0,Wunderground v.1.15,2013-11-03 07:06:00,
2013-11-03 00:15:00,54.1,50.9,30.00,SSW,201,0.0,2.0,89,0.00,,,0.00,0,Wunderground v.1.15,2013-11-03 07:15:00,
2013-11-03 00:20:00,54.0,50.8,30.00,SSW,200,0.0,0.0,89,0.00,,,0.00,0,Wunderground v.1.15,2013-11-03 07:20:00,
2013-11-03 00:25:00,53.8,50.6,30.00,SSW,201,0.0,1.0,89,0.00,,,0.00,0,Wunderground v.1.15,2013-11-03 07:25:00,
2013-11-03 00:35:00,53.7,50.5,30.00,SSW,200,0.0,0.0,89,0.00,,,0.00,0,Wunderground v.1.15,2013-11-03 07:35:00,
2013-11-03 00:45:00,53.2,50.0,30.00,SSW,200,0.0,1.0,89,0.00,,,0.00,0,Wunderground v.1.15,2013-11-03 07:45:00,
2013-11-03 00:50:00,53.0,49.8,30.01,SSW,201,1.0,5.0,89,0.00,,,0.00,0,Wunderground v.1.15,2013-11-03 07:50:00,
2013-11-03 01:01:00,52.8,49.3,30.01,NW,313,4.0,4.0,88,0.00,,,0.00,0,Wunderground v.1.15,2013-11-03 08:01:00,
2013-11-03 01:10:00,52.9,48.8,30.01,NW,311,2.0,2.0,86,0.00,,,0.00,0,Wunderground v.1.15,2013-11-03 08:10:00,
2013-11-03 01:20:00,53.0,48.3,30.01,NW,314,4.0,4.0,84,0.00,,,0.00,0,Wunderground v.1.15,2013-11-03 08:20:00,
2013-11-03 01:26:00,53.2,48.2,30.01,NW,317,4.0,4.0,83,0.00,,,0.00,0,Wunderground v.1.15,2013-11-03 08:26:00,
2013-11-03 01:35:00,53.5,47.8,30.01,NW,316,4.0,4.0,81,0.00,,,0.00,0,Wunderground v.1.15,2013-11-03 08:35:00,
2013-11-03 01:45:00,53.4,47.0,30.01,NW,316,0.0,2.0,79,0.00,,,0.00,0,Wunderground v.1.15,2013-11-03 08:45:00,
2013-11-03 01:50:00,53.3,47.0,30.01,NW,316,0.0,2.0,79,0.00,,,0.00,0,Wunderground v.1.15,2013-11-03 08:50:00,
2013-11-03 01:00:00,53.1,46.4,30.02,NW,316,1.0,1.0,78,0.00,,,0.00,0,Wunderground v.1.15,2013-11-03 09:00:00,
2013-11-03 01:05:00,53.0,46.3,30.02,NW,322,1.0,3.0,78,0.00,,,0.00,0,Wunderground v.1.15,2013-11-03 09:05:00,
2013-11-03 01:15:00,53.1,46.1,30.02,NNE,25,5.0,5.0,77,0.00,,,0.00,0,Wunderground v.1.15,2013-11-03 09:15:00,
2013-11-03 01:20:00,53.2,46.2,30.02,NNE,26,5.0,5.0,77,0.00,,,0.00,0,Wunderground v.1.15,2013-11-03 09:20:00,
2013-11-03 01:30:00,53.3,45.9,30.02,NNE,23,4.0,4.0,76,0.00,,,0.00,0,Wunderground v.1.15,2013-11-03 09:30:00,
2013-11-03 01:36:00,53.3,45.6,30.02,NNE,22,4.0,4.0,75,0.00,,,0.00,0,Wunderground v.1.15,2013-11-03 09:36:00,
2013-11-03 01:45:00,53.1,45.4,30.01,NNE,23,1.0,1.0,75,0.00,,,0.00,0,Wunderground v.1.15,2013-11-03 09:45:00,
2013-11-03 01:55:00,52.8,45.1,30.02,NNE,23,3.0,4.0,75,0.00,,,0.00,0,Wunderground v.1.15,2013-11-03 09:55:00,
2013-11-03 02:05:00,52.8,44.7,30.02,NNE,23,3.0,4.0,74,0.00,,,0.00,0,Wunderground v.1.15,2013-11-03 10:05:00,
2013-11-03 02:15:00,52.8,44.7,30.02,NNE,24,4.0,4.0,74,0.00,,,0.00,0,Wunderground v.1.15,2013-11-03 10:15:00,
2013-11-03 02:20:00,52.7,44.6,30.02,NNE,23,3.0,3.0,74,0.00,,,0.00,0,Wunderground v.1.15,2013-11-03 10:20:00,
2013-11-03 02:25:00,52.7,44.3,30.02,NNE,22,3.0,3.0,73,0.00,,,0.00,0,Wunderground v.1.15,2013-11-03 10:25:00,
2013-11-03 02:35:00,52.3,43.9,30.02,NNE,22,1.0,2.0,73,0.00,,,0.00,0,Wunderground v.1.15,2013-11-03 10:35:00,
2013-11-03 02:40:00,52.1,43.7,30.03,NNE,23,0.0,0.0,73,0.00,,,0.00,0,Wunderground v.1.15,2013-11-03 10:40:00,
2013-11-03 02:45:00,52.0,44.0,30.02,NNE,23,0.0,2.0,74,0.00,,,0.00,0,Wunderground v.1.15,2013-11-03 10:45:00,
2013-11-03 02:50:00,51.9,43.9,30.03,NNE,22,2.0,5.0,74,0.00,,,0.00,0,Wunderground v.1.15,2013-11-03 10:50:00,
2013-11-03 02:55:00,52.0,43.6,30.03,NNE,24,4.0,5.0,73,0.00,,,0.00,0,Wunderground v.1.15,2013-11-03 10:55:00,
2013-11-03 03:05:00,52.2,43.4,30.03,NNE,15,5.0,6.0,72,0.00,,,0.00,0,Wunderground v.1.15,2013-11-03 11:05:00,
2013-11-03 03:10:00,52.3,43.5,30.02,NNE,20,5.0,5.0,72,0.00,,,0.00,0,Wunderground v.1.15,2013-11-03 11:10:00,
2013-11-03 03:20:00,52.3,43.2,30.02,NNE,18,5.0,5.0,71,0.00,,,0.00,0,Wunderground v.1.15,2013-11-03 11:20:00,
2013-11-03 03:30:00,52.3,42.8,30.03,NNE,18,4.0,6.0,70,0.00,,,0.00,0,Wunderground v.1.15,2013-11-03 11:30:00,
2013-11-03 03:35:00,52.2,42.7,30.03,NNE,24,5.0,8.0,70,0.00,,,0.00,0,Wunderground v.1.15,2013-11-03 11:35:00,
2013-11-03 03:40:00,52.2,43.1,30.03,NNE,23,4.0,4.0,71,0.00,,,0.00,0,Wunderground v.1.15,2013-11-03 11:40:00,
2013-11-03 03:50:00,52.1,42.6,30.04,NNE,18,4.0,4.0,70,0.00,,,0.00,0,Wunderground v.1.15,2013-11-03 11:50:00,
2013-11-03 03:55:00,52.1,42.6,30.04,NNE,13,5.0,5.0,70,0.00,,,0.00,0,Wunderground v.1.15,2013-11-03 11:55:00,
2013-11-03 04:00:00,52.2,42.7,30.04,NNE,19,6.0,6.0,70,0.00,,,0.00,0,Wunderground v.1.15,2013-11-03 12:00:00,
2013-11-03 04:05:00,52.1,42.6,30.03,NNE,12,6.0,6.0,70,0.00,,,0.00,0,Wunderground v.1.15,2013-11-03 12:05:00,
2013-11-03 04:10:00,52.1,42.6,30.03,NNE,13,6.0,6.0,70,0.00,,,0.00,0,Wunderground v.1.15,2013-11-03 12:10:00,
2013-11-03 04:20:00,52.2,42.3,30.04,NNE,12,8.0,8.0,69,0.00,,,0.00,0,Wunderground v.1.15,2013-11-03 12:20:00,
2013-11-03 04:30:00,52.1,42.6,30.04,North,10,7.0,7.0,70,0.00,,,0.00,0,Wunderground v.1.15,2013-11-03 12:30:00,
2013-11-03 04:40:00,51.8,41.9,30.04,NNE,21,6.0,8.0,69,0.00,,,0.00,0,Wunderground v.1.15,2013-11-03 12:40:00,
2013-11-03 04:50:00,51.7,41.9,30.05,NNE,16,6.0,6.0,69,0.00,,,0.00,0,Wunderground v.1.15,2013-11-03 12:50:00,
2013-11-03 04:55:00,51.6,41.8,30.05,NNE,19,6.0,6.0,69,0.00,,,0.00,0,Wunderground v.1.15,2013-11-03 12:55:00,
2013-11-03 05:05:00,51.4,41.6,30.05,NNE,18,6.0,6.0,69,0.00,,,0.00,0,Wunderground v.1.15,2013-11-03 13:05:00,
2013-11-03 05:10:00,51.3,41.5,30.05,NNE,22,6.0,6.0,69,0.00,,,0.00,0,Wunderground v.1.15,2013-11-03 13:10:00,
2013-11-03 05:20:00,51.1,41.3,30.05,NNE,14,5.0,6.0,69,0.00,,,0.00,0,Wunderground v.1.15,2013-11-03 13:20:00,
2013-11-03 05:30:00,51.0,41.2,30.06,North,10,5.0,5.0,69,0.00,,,0.00,0,Wunderground v.1.15,2013-11-03 13:30:00,
2013-11-03 05:40:00,50.9,41.1,30.06,North,8,6.0,6.0,69,0.00,,,0.00,0,Wunderground v.1.15,2013-11-03 13:40:00,
2013-11-03 05:45:00,50.8,41.0,30.06,NNE,18,5.0,6.0,69,0.00,,,0.00,0,Wunderground v.1.15,2013-11-03 13:45:00,
2013-11-03 05:55:00,50.6,41.2,30.06,NNE,15,5.0,5.0,70,0.00,,,0.00,0,Wunderground v.1.15,2013-11-03 13:55:00,
2013-11-03 06:00:00,50.5,41.1,30.06,NNE,12,5.0,5.0,70,0.00,,,0.00,0,Wunderground v.1.15,2013-11-03 14:00:00,
2013-11-03 06:10:00,50.4,41.0,30.06,NNE,31,6.0,6.0,70,0.00,,,0.00,0,Wunderground v.1.15,2013-11-03 14:10:00,
2013-11-03 06:20:00,50.2,40.8,30.06,NNE,32,6.0,6.0,70,0.00,,,0.00,0,Wunderground v.1.15,2013-11-03 14:20:00,
2013-11-03 06:30:00,50.0,40.6,30.07,NNE,26,5.0,5.0,70,0.00,,,0.00,0,Wunderground v.1.15,2013-11-03 14:30:00,
2013-11-03 06:35:00,50.0,40.6,30.07,NNE,23,4.0,5.0,70,0.00,,,0.00,0,Wunderground v.1.15,2013-11-03 14:35:00,
2013-11-03 06:40:00,49.9,40.5,30.07,NNE,28,4.0,5.0,70,0.00,,,0.00,5,Wunderground v.1.15,2013-11-03 14:40:00,
2013-11-03 06:50:00,49.7,40.3,30.07,NNE,33,4.0,5.0,70,0.00,,,0.00,11,Wunderground v.1.15,2013-11-03 14:50:00,
2013-11-03 06:55:00,49.7,40.3,30.07,NNE,33,5.0,5.0,70,0.00,,,0.00,14,Wunderground v.1.15,2013-11-03 14:55:00,
2013-11-03 07:05:00,50.6,41.2,30.07,NNE,31,4.0,5.0,70,0.00,,,0.00,28,Wunderground v.1.15,2013-11-03 15:05:00,
2013-11-03 07:11:00,51.3,41.5,30.08,NNE,33,2.0,4.0,69,0.00,,,0.00,40,Wunderground v.1.15,2013-11-03 15:11:00,
2013-11-03 07:20:00,52.9,41.0,30.08,NNE,24,5.0,8.0,64,0.00,,,0.00,63,Wunderground v.1.15,2013-11-03 15:20:00,
2013-11-03 07:30:00,54.3,41.1,30.08,NNE,17,6.0,6.0,61,0.00,,,0.00,97,Wunderground v.1.15,2013-11-03 15:30:00,
2013-11-03 07:35:00,55.0,40.9,30.08,NNE,16,6.0,7.0,59,0.00,,,0.00,114,Wunderground v.1.15,2013-11-03 15:35:00,
2013-11-03 07:45:00,56.3,40.3,30.08,NNE,14,6.0,8.0,55,0.00,,,0.00,151,Wunderground v.1.15,2013-11-03 15:45:00,
2013-11-03 07:55:00,56.9,39.4,30.08,NNE,28,7.0,10.0,52,0.00,,,0.00,183,Wunderground v.1.15,2013-11-03 15:55:00,
2013-11-03 08:00:00,57.1,39.6,30.08,NNE,28,8.0,8.0,52,0.00,,,0.00,199,Wunderground v.1.15,2013-11-03 16:00:00,
2013-11-03 08:05:00,57.3,39.8,30.08,NNE,28,7.0,8.0,52,0.00,,,0.00,213,Wunderground v.1.15,2013-11-03 16:05:00,
2013-11-03 08:15:00,58.2,39.6,30.09,North,6,6.0,10.0,50,0.00,,,0.00,243,Wunderground v.1.15,2013-11-03 16:15:00,
2013-11-03 08:25:00,59.0,38.8,30.09,NE,37,6.0,6.0,47,0.00,,,0.00,283,Wunderground v.1.15,2013-11-03 16:25:00,
2013-11-03 08:35:00,59.4,38.6,30.09,North,1,8.0,12.0,46,0.00,,,0.00,290,Wunderground v.1.15,2013-11-03 16:35:00,
2013-11-03 08:45:00,59.2,38.4,30.09,NNE,14,8.0,9.0,46,0.00,,,0.00,301,Wunderground v.1.15,2013-11-03 16:45:00,
2013-11-03 08:50:00,59.6,39.3,30.09,NE,41,6.0,9.0,47,0.00,,,0.00,346,Wunderground v.1.15,2013-11-03 16:50:00,
2013-11-03 09:00:00,60.2,38.8,30.09,NNE,31,8.0,8.0,45,0.00,,,0.00,378,Wunderground v.1.15,2013-11-03 17:00:00,
2013-11-03 09:05:00,60.9,39.4,30.09,NE,35,7.0,13.0,45,0.00,,,0.00,381,Wunderground v.1.15,2013-11-03 17:05:00,
2013-11-03 09:10:00,60.8,38.1,30.09,NE,43,8.0,10.0,43,0.00,,,0.00,411,Wunderground v.1.15,2013-11-03 17:10:00,
2013-11-03 09:20:00,60.9,38.2,30.09,NNE,17,9.0,11.0,43,0.00,,,0.00,443,Wunderground v.1.15,2013-11-03 17:20:00,
2013-11-03 09:25:00,61.3,38.6,30.08,NNE,14,9.0,11.0,43,0.00,,,0.00,450,Wunderground v.1.15,2013-11-03 17:25:00,
2013-11-03 09:31:00,62.0,38.6,30.08,NNE,14,7.0,9.0,42,0.00,,,0.00,475,Wunderground v.1.15,2013-11-03 17:31:00,
2013-11-03 09:40:00,62.0,38.0,30.08,North,6,9.0,9.0,41,0.00,,,0.00,545,Wunderground v.1.15,2013-11-03 17:40:00,
2013-11-03 09:45:00,62.1,37.5,30.08,North,349,9.0,13.0,40,0.00,,,0.00,425,Wunderground v.1.15,2013-11-03 17:45:00,
2013-11-03 09:56:00,61.8,37.8,30.08,North,357,7.0,8.0,41,0.00,,,0.00,396,Wunderground v.1.15,2013-11-03 17:56:00,
2013-11-03 10:05:00,62.3,37.7,30.08,North,5,6.0,11.0,40,0.00,,,0.00,454,Wunderground v.1.15,2013-11-03 18:05:00,
2013-11-03 10:10:00,62.6,36.6,30.08,North,6,7.0,12.0,38,0.00,,,0.00,499,Wunderground v.1.15,2013-11-03 18:10:00,
2013-11-03 10:20:00,63.0,37.0,30.08,North,10,9.0,9.0,38,0.00,,,0.00,555,Wunderground v.1.15,2013-11-03 18:20:00,
2013-11-03 10:30:00,63.5,36.7,30.08,NNE,26,7.0,9.0,37,0.00,,,0.00,494,Wunderground v.1.15,2013-11-03 18:30:00,
2013-11-03 10:35:00,63.9,35.7,30.08,NNW,345,7.0,9.0,35,0.00,,,0.00,527,Wunderground v.1.15,2013-11-03 18:35:00,
2013-11-03 10:40:00,64.1,35.1,30.08,North,1,7.0,9.0,34,0.00,,,0.00,519,Wunderground v.1.15,2013-11-03 18:40:00,
2013-11-03 10:50:00,64.4,33.9,30.07,NNE,16,6.0,6.0,32,0.00,,,0.00,448,Wunderground v.1.15,2013-11-03 18:50:00,
2013-11-03 11:00:00,64.8,34.2,30.07,NNE,26,5.0,6.0,32,0.00,,,0.00,448,Wunderground v.1.15,2013-11-03 19:00:00,
2013-11-03 11:05:00,65.1,35.3,30.07,North,10,5.0,6.0,33,0.00,,,0.00,364,Wunderground v.1.15,2013-11-03 19:05:00,
2013-11-03 11:10:00,65.1,35.3,30.07,NNE,26,4.0,4.0,33,0.00,,,0.00,325,Wunderground v.1.15,2013-11-03 19:10:00,
2013-11-03 11:20:00,64.9,33.5,30.07,North,3,4.0,5.0,31,0.00,,,0.00,374,Wunderground v.1.15,2013-11-03 19:20:00,
2013-11-03 11:26:00,64.7,33.3,30.07,North,351,4.0,5.0,31,0.00,,,0.00,441,Wunderground v.1.15,2013-11-03 19:26:00,
2013-11-03 11:35:00,58.8,41.2,30.06,WSW,239,5.0,7.0,52,0.00,,,0.00,554,Wunderground v.1.15,2013-11-03 19:35:00,
2013-11-03 11:45:00,59.3,43.1,30.05,SW,230,5.0,6.0,55,0.00,,,0.00,633,Wunderground v.1.15,2013-11-03 19:45:00,
2013-11-03 11:55:00,59.6,41.4,30.05,SSW,213,5.0,5.0,51,0.00,,,0.00,489,Wunderground v.1.15,2013-11-03 19:55:00,
2013-11-03 12:05:00,60.3,40.0,30.04,SW,218,2.0,4.0,47,0.00,,,0.00,541,Wunderground v.1.15,2013-11-03 20:05:00,
2013-11-03 12:15:00,60.0,42.3,30.04,SW,227,4.0,4.0,52,0.00,,,0.00,418,Wunderground v.1.15,2013-11-03 20:15:00,
2013-11-03 12:25:00,59.5,41.3,30.02,SW,218,4.0,5.0,51,0.00,,,0.00,348,Wunderground v.1.15,2013-11-03 20:25:00,
2013-11-03 12:35:00,59.6,43.4,30.02,SW,226,5.0,5.0,55,0.00,,,0.00,413,Wunderground v.1.15,2013-11-03 20:35:00,
2013-11-03 12:40:00,59.4,42.7,30.02,WSW,237,5.0,5.0,54,0.00,,,0.00,380,Wunderground v.1.15,2013-11-03 20:40:00,
2013-11-03 12:50:00,59.1,41.5,30.01,SW,230,5.0,5.0,52,0.00,,,0.00,330,Wunderground v.1.15,2013-11-03 20:50:00,
2013-11-03 13:00:00,59.1,41.0,30.01,WSW,248,6.0,8.0,51,0.00,,,0.00,642,Wunderground v.1.15,2013-11-03 21:00:00,
2013-11-03 13:10:00,59.6,40.4,30.01,WSW,258,6.0,7.0,49,0.00,,,0.00,374,Wunderground v.1.15,2013-11-03 21:10:00,
2013-11-03 13:20:00,59.9,41.7,30.00,WSW,244,6.0,6.0,51,0.00,,,0.00,359,Wunderground v.1.15,2013-11-03 21:20:00,
2013-11-03 13:25:00,60.2,43.0,30.00,WSW,248,4.0,6.0,53,0.00,,,0.00,306,Wunderground v.1.15,2013-11-03 21:25:00,
2013-11-03 13:35:00,59.8,41.6,29.99,WSW,252,6.0,8.0,51,0.00,,,0.00,424,Wunderground v.1.15,2013-11-03 21:35:00,
2013-11-03 13:41:00,59.6,42.4,29.99,West,259,7.0,7.0,53,0.00,,,0.00,322,Wunderground v.1.15,2013-11-03 21:41:00,
2013-11-03 13:50:00,59.9,41.7,29.99,WSW,248,4.0,5.0,51,0.00,,,0.00,367,Wunderground v.1.15,2013-11-03 21:50:00,
2013-11-03 14:00:00,60.3,44.1,29.98,WSW,238,5.0,6.0,55,0.00,,,0.00,487,Wunderground v.1.15,2013-11-03 22:00:00,
2013-11-03 14:05:00,60.4,44.2,29.98,SW,227,5.0,6.0,55,0.00,,,0.00,292,Wunderground v.1.15,2013-11-03 22:05:00,
2013-11-03 14:15:00,60.5,43.3,29.99,SW,232,5.0,6.0,53,0.00,,,0.00,508,Wunderground v.1.15,2013-11-03 22:15:00,
2013-11-03 14:20:00,60.9,44.1,29.99,SW,235,5.0,5.0,54,0.00,,,0.00,494,Wunderground v.1.15,2013-11-03 22:20:00,
2013-11-03 14:25:00,60.9,44.6,29.99,SW,232,5.0,9.0,55,0.00,,,0.00,364,Wunderground v.1.15,2013-11-03 22:25:00,
2013-11-03 14:35:00,61.1,43.8,29.99,SW,236,5.0,6.0,53,0.00,,,0.00,388,Wunderground v.1.15,2013-11-03 22:35:00,
2013-11-03 14:40:00,61.2,45.4,29.98,SW,236,5.0,6.0,56,0.00,,,0.00,346,Wunderground v.1.15,2013-11-03 22:40:00,
2013-11-03 14:50:00,60.7,46.3,29.98,SW,218,6.0,6.0,59,0.00,,,0.00,295,Wunderground v.1.15,2013-11-03 22:50:00,
2013-11-03 15:00:00,60.8,46.4,29.97,SW,230,5.0,5.0,59,0.00,,,0.00,272,Wunderground v.1.15,2013-11-03 23:00:00,
2013-11-03 15:05:00,60.7,46.3,29.97,SW,228,5.0,5.0,59,0.00,,,0.00,239,Wunderground v.1.15,2013-11-03 23:05:00,
2013-11-03 15:11:00,60.7,46.7,29.97,SSW,213,5.0,5.0,60,0.00,,,0.00,236,Wunderground v.1.15,2013-11-03 23:11:00,
2013-11-03 15:20:00,60.6,46.6,29.97,WSW,240,5.0,5.0,60,0.00,,,0.00,130,Wunderground v.1.15,2013-11-03 23:20:00,
2013-11-03 15:25:00,60.5,47.0,29.97,SW,232,4.0,5.0,61,0.00,,,0.00,118,Wunderground v.1.15,2013-11-03 23:25:00,
2013-11-03 15:30:00,60.2,48.0,29.97,SW,218,4.0,6.0,64,0.00,,,0.00,123,Wunderground v.1.15,2013-11-03 23:30:00,
2013-11-03 15:40:00,59.4,49.6,29.96,SW,218,4.0,4.0,70,0.00,,,0.00,91,Wunderground v.1.15,2013-11-03 23:40:00,
2013-11-03 15:45:00,59.0,48.8,29.96,SW,218,4.0,4.0,69,0.00,,,0.00,79,Wunderground v.1.15,2013-11-03 23:45:00,
2013-11-03 15:50:00,58.9,48.7,29.96,SW,228,4.0,4.0,69,0.00,,,0.00,69,Wunderground v.1.15,2013-11-03 23:50:00,
2013-11-03 16:00:00,58.9,49.5,29.96,SW,218,3.0,3.0,71,0.00,,,0.00,53,Wunderground v.1.15,2013-11-04 00:00:00,
2013-11-03 16:05:00,58.8,50.2,29.96,SW,218,3.0,5.0,73,0.00,,,0.00,54,Wunderground v.1.15,2013-11-04 00:05:00,
2013-11-03 16:15:00,58.4,50.5,29.96,SSW,213,5.0,6.0,75,0.00,,,0.00,62,Wunderground v.1.15,2013-11-04 00:15:00,
2013-11-03 16:25:00,58.2,50.7,29.96,SW,218,3.0,3.0,76,0.00,,,0.00,39,Wunderground v.1.15,2013-11-04 00:25:00,
2013-11-03 16:30:00,58.1,50.6,29.96,SW,226,4.0,4.0,76,0.00,,,0.00,30,Wunderground v.1.15,2013-11-04 00:30:00,
2013-11-03 16:35:00,58.1,50.9,29.96,SW,230,4.0,4.0,77,0.00,,,0.00,26,Wunderground v.1.15,2013-11-04 00:35:00,
2013-11-03 16:45:00,58.0,51.2,29.96,SW,222,2.0,3.0,78,0.00,,,0.00,19,Wunderground v.1.15,2013-11-04 00:45:00,
2013-11-03 16:50:00,57.9,51.1,29.95,SW,218,0.0,0.0,78,0.00,,,0.00,14,Wunderground v.1.15,2013-11-04 00:50:00,
2013-11-03 17:05:00,57.8,51.3,29.95,SW,222,0.0,0.0,79,0.00,,,0.00,0,Wunderground v.1.15,2013-11-04 01:05:00,
2013-11-03 17:10:00,57.7,51.2,29.95,SW,222,0.0,0.0,79,0.00,,,0.00,0,Wunderground v.1.15,2013-11-04 01:10:00,
2013-11-03 17:15:00,57.6,50.8,29.95,SW,222,0.0,0.0,78,0.00,,,0.00,0,Wunderground v.1.15,2013-11-04 01:15:00,
2013-11-03 17:20:00,57.7,51.2,29.95,SW,218,0.0,0.0,79,0.00,,,0.00,0,Wunderground v.1.15,2013-11-04 01:20:00,
2013-11-03 17:30:00,57.6,50.4,29.96,SW,222,0.0,0.0,77,0.00,,,0.00,0,Wunderground v.1.15,2013-11-04 01:30:00,
2013-11-03 17:35:00,56.8,47.9,29.96,NW,306,2.0,6.0,72,0.00,,,0.00,0,Wunderground v.1.15,2013-11-04 01:35:00,
2013-11-03 17:40:00,57.0,46.1,29.96,NW,321,4.0,9.0,67,0.00,,,0.00,0,Wunderground v.1.15,2013-11-04 01:40:00,
2013-11-03 17:50:00,57.9,44.1,29.96,NNW,339,4.0,4.0,60,0.00,,,0.00,0,Wunderground v.1.15,2013-11-04 01:50:00,
2013-11-03 18:00:00,58.1,43.4,29.96,NNW,332,7.0,7.0,58,0.00,,,0.00,0,Wunderground v.1.15,2013-11-04 02:00:00,
2013-11-03 18:06:00,57.9,44.1,29.96,NNW,336,5.0,7.0,60,0.00,,,0.00,0,Wunderground v.1.15,2013-11-04 02:06:00,
2013-11-03 18:15:00,57.9,44.1,29.95,NNW,337,2.0,3.0,60,0.00,,,0.00,0,Wunderground v.1.15,2013-11-04 02:15:00,
2013-11-03 18:20:00,57.8,44.0,29.95,NNW,336,1.0,1.0,60,0.00,,,0.00,0,Wunderground v.1.15,2013-11-04 02:20:00,
2013-11-03 18:30:00,57.5,44.1,29.95,NNW,336,0.0,0.0,61,0.00,,,0.00,0,Wunderground v.1.15,2013-11-04 02:30:00,
2013-11-03 18:40:00,57.3,44.0,29.95,NNW,336,0.0,0.0,61,0.00,,,0.00,0,Wunderground v.1.15,2013-11-04 02:40:00,
2013-11-03 18:50:00,57.1,44.6,29.96,NNW,337,0.0,0.0,63,0.00,,,0.00,0,Wunderground v.1.15,2013-11-04 02:50:00,
2013-11-03 18:55:00,57.1,44.6,29.96,NNW,336,0.0,0.0,63,0.00,,,0.00,0,Wunderground v.1.15,2013-11-04 02:55:00,
2013-11-03 19:00:00,56.9,44.4,29.95,NNW,337,0.0,0.0,63,0.00,,,0.00,0,Wunderground v.1.15,2013-11-04 03:00:00,
2013-11-03 19:10:00,56.6,44.1,29.96,NNW,338,0.0,0.0,63,0.00,,,0.00,0,Wunderground v.1.15,2013-11-04 03:10:00,
2013-11-03 19:20:00,56.2,43.3,29.95,NNW,337,0.0,0.0,62,0.00,,,0.00,0,Wunderground v.1.15,2013-11-04 03:20:00,
2013-11-03 19:30:00,55.9,43.5,29.96,NNW,336,1.0,2.0,63,0.00,,,0.00,0,Wunderground v.1.15,2013-11-04 03:30:00,
2013-11-03 19:35:00,55.8,43.8,29.96,NNW,337,2.0,2.0,64,0.00,,,0.00,0,Wunderground v.1.15,2013-11-04 03:35:00,
2013-11-03 19:40:00,55.7,43.7,29.96,NNW,336,1.0,1.0,64,0.00,,,0.00,0,Wunderground v.1.15,2013-11-04 03:40:00,
2013-11-03 19:45:00,55.7,43.7,29.96,NNW,336,0.0,1.0,64,0.00,,,0.00,0,Wunderground v.1.15,2013-11-04 03:45:00,
2013-11-03 19:55:00,55.7,43.7,29.97,NNW,336,0.0,0.0,64,0.00,,,0.00,0,Wunderground v.1.15,2013-11-04 03:55:00,
2013-11-03 20:05:00,55.6,43.6,29.97,NNW,336,2.0,3.0,64,0.00,,,0.00,0,Wunderground v.1.15,2013-11-04 04:05:00,
2013-11-03 20:10:00,55.4,43.4,29.96,North,11,3.0,6.0,64,0.00,,,0.00,0,Wunderground v.1.15,2013-11-04 04:10:00,
2013-11-03 20:20:00,55.2,43.2,29.97,NNE,20,5.0,5.0,64,0.00,,,0.00,0,Wunderground v.1.15,2013-11-04 04:20:00,
2013-11-03 20:25:00,55.2,43.2,29.97,NNE,20,4.0,5.0,64,0.00,,,0.00,0,Wunderground v.1.15,2013-11-04 04:25:00,
2013-11-03 20:30:00,55.2,43.2,29.97,NNE,22,4.0,4.0,64,0.00,,,0.00,0,Wunderground v.1.15,2013-11-04 04:30:00,
2013-11-03 20:40:00,55.1,43.5,29.97,NNE,22,4.0,4.0,65,0.00,,,0.00,0,Wunderground v.1.15,2013-11-04 04:40:00,
2013-11-03 20:45:00,55.0,43.0,29.97,NNE,24,4.0,5.0,64,0.00,,,0.00,0,Wunderground v.1.15,2013-11-04 04:45:00,
2013-11-03 20:50:00,55.0,43.0,29.97,NNE,25,4.0,5.0,64,0.00,,,0.00,0,Wunderground v.1.15,2013-11-04 04:50:00,
2013-11-03 21:00:00,55.1,43.1,29.96,NNE,28,4.0,4.0,64,0.00,,,0.00,0,Wunderground v.1.15,2013-11-04 05:00:00,
2013-11-03 21:06:00,55.1,43.1,29.96,NNE,29,4.0,4.0,64,0.00,,,0.00,0,Wunderground v.1.15,2013-11-04 05:06:00,
2013-11-03 21:10:00,55.0,43.0,29.97,NNE,29,3.0,3.0,64,0.00,,,0.00,0,Wunderground v.1.15,2013-11-04 05:10:00,
2013-11-03 21:15:00,55.0,43.0,29.97,NNE,26,4.0,4.0,64,0.00,,,0.00,0,Wunderground v.1.15,2013-11-04 05:15:00,
2013-11-03 21:25:00,54.8,42.4,29.97,NNE,24,5.0,5.0,63,0.00,,,0.00,0,Wunderground v.1.15,2013-11-04 05:25:00,
2013-11-03 21:30:00,54.8,42.4,29.98,NNE,20,4.0,4.0,63,0.00,,,0.00,0,Wunderground v.1.15,2013-11-04 05:30:00,
2013-11-03 21:40:00,54.5,42.2,29.98,NNE,24,3.0,3.0,63,0.00,,,0.00,0,Wunderground v.1.15,2013-11-04 05:40:00,
2013-11-03 21:50:00,54.3,42.0,29.98,NNE,24,1.0,1.0,63,0.00,,,0.00,0,Wunderground v.1.15,2013-11-04 05:50:00,
2013-11-03 21:55:00,54.1,42.2,29.98,NNE,23,0.0,1.0,64,0.00,,,0.00,0,Wunderground v.1.15,2013-11-04 05:55:00,
2013-11-03 22:00:00,53.9,42.0,29.98,NNE,24,0.0,0.0,64,0.00,,,0.00,0,Wunderground v.1.15,2013-11-04 06:00:00,
2013-11-03 22:06:00,53.8,42.7,29.98,NNE,25,0.0,0.0,66,0.00,,,0.00,0,Wunderground v.1.15,2013-11-04 06:06:00,
2013-11-03 22:15:00,53.6,42.5,29.98,NNE,24,0.0,0.0,66,0.00,,,0.00,0,Wunderground v.1.15,2013-11-04 06:15:00,
2013-11-03 22:25:00,53.0,41.9,29.98,NNE,24,0.0,0.0,66,0.00,,,0.00,0,Wunderground v.1.15,2013-11-04 06:25:00,
2013-11-03 22:30:00,52.8,41.7,29.98,NNE,24,0.0,0.0,66,0.00,,,0.00,0,Wunderground v.1.15,2013-11-04 06:30:00,
2013-11-03 22:40:00,52.7,42.0,29.97,NNE,24,0.0,0.0,67,0.00,,,0.00,0,Wunderground v.1.15,2013-11-04 06:40:00,
2013-11-03 22:45:00,52.7,42.0,29.97,NNE,24,0.0,0.0,67,0.00,,,0.00,0,Wunderground v.1.15,2013-11-04 06:45:00,
2013-11-03 22:55:00,52.4,42.1,29.98,NNE,25,0.0,0.0,68,0.00,,,0.00,0,Wunderground v.1.15,2013-11-04 06:55:00,
2013-11-03 23:00:00,52.1,41.9,29.98,NNE,24,0.0,0.0,68,0.00,,,0.00,0,Wunderground v.1.15,2013-11-04 07:00:00,
2013-11-03 23:10:00,51.9,42.0,29.98,NNE,24,1.0,1.0,69,0.00,,,0.00,0,Wunderground v.1.15,2013-11-04 07:10:00,
2013-11-03 23:15:00,52.2,42.3,29.98,NNE,25,1.0,1.0,69,0.00,,,0.00,0,Wunderground v.1.15,2013-11-04 07:15:00,
2013-11-03 23:25:00,52.3,42.4,29.97,NNE,25,0.0,0.0,69,0.00,,,0.00,0,Wunderground v.1.15,2013-11-04 07:25:00,
2013-11-03 23:35:00,52.0,41.8,29.97,NNE,24,0.0,0.0,68,0.00,,,0.00,0,Wunderground v.1.15,2013-11-04 07:35:00,
2013-11-03 23:40:00,51.8,41.9,29.97,NNE,24,0.0,0.0,69,0.00,,,0.00,0,Wunderground v.1.15,2013-11-04 07:40:00,
2013-11-03 23:50:00,51.5,42.0,29.97,NNE,25,0.0,0.0,70,0.00,,,0.00,0,Wunderground v.1.15,2013-11-04 07:50:00,